Regional Weather Roundup
Issued by NWS Albany, NY

Current Version | Previous Version | Text Only | Print | Product List | Glossary On
Versions: 1 2 3 4 5 6 7 8 9 10 11 12 13 14 15 16 17 18 19 20 21 22 23 24 25 26 27
000
ASUS41 KALY 230810
RWRALY

NEW YORK STATE HOURLY WEATHER ROUNDUP
NATIONAL WEATHER SERVICE ALBANY NY
400 AM EDT THU OCT 23 2014

NOTE: "FAIR" INDICATES FEW OR NO CLOUDS BELOW 12,000 FEET WITH NO
SIGNIFICANT WEATHER AND/OR NO OBSTRUCTIONS TO VISIBILITY.

NYZ032-033-038>043-046>054-057>066-NYZ062>081-230900-
EAST


CITY           SKY/WX    TMP DP  RH WIND       PRES   REMARKS
ALBANY         RAIN      48  44  86 N8        29.90S FOG
GLENS FALLS    LGT RAIN  49  43  80 N14       29.91F
POUGHKEEPSIE   CLOUDY    50  46  86 N14G22    29.77F
NEWBURGH       CLOUDY    50  48  93 N18G26    29.77F
MONTGOMERY     LGT RAIN  50  47  89 NE8       29.76F
WHITE PLAINS   LGT RAIN  50  46  86 N16G24    29.68F
ISLIP          CLOUDY    52  47  83 N23G38    29.63S
NEW YORK CITY  RAIN      53  47  79 N15       29.70S
CENTRAL PARK   LGT RAIN  52  46  80 NE8G21    29.73F
$$

NYZ005>009-017-018-044>046-055-056-230900-
CENTRAL


CITY           SKY/WX    TMP DP  RH WIND       PRES   REMARKS
FULTON         CLOUDY    46  36  68 N14G25    30.03F
SYRACUSE       LGT RAIN  47  40  76 NW12      30.00F
ROME           PTCLDY    46  38  73 N7        29.98F
ELMIRA         CLOUDY    48  41  76 N15G22    29.99F
BINGHAMTON     CLOUDY    43  40  89 N15       29.91F
MONTICELLO     MOCLDY    46  43  87 N13       29.80F
$$

NYZ026>034-041>043-230900-
NORTH


CITY           SKY/WX    TMP DP  RH WIND       PRES   REMARKS
WATERTOWN      PTCLDY    45  34  65 N15       30.06F
FORT DRUM      NOT AVBL
MASSENA        MOCLDY    43  35  73 NE10      30.12F
SARANAC LAKE   CLOUDY    41  36  82 NE12      30.00F
PLATTSBURGH    CLOUDY    44  35  70 N20G28    30.05F
$$

NYZ001>004-010>016-019>021-230900-
WEST


CITY           SKY/WX    TMP DP  RH WIND       PRES   REMARKS
NIAGARA FALLS  CLEAR     43  40  89 N7        30.15S
BUFFALO        CLEAR     43  40  89 NW9       30.14S
DUNKIRK        CLOUDY    49  42  77 N10       30.15S
JAMESTOWN      CLOUDY    43  39  87 N9        30.11F
WELLSVILLE     CLOUDY    42  38  85 N8G20     30.05F
ROCHESTER      CLEAR     48  39  71 N12       30.09F
PENN YAN       MOCLDY    46  40  79 NW7G17    30.03F
$$

             KEY
       WCI = WIND CHILL INDEX
       VSB = VISIBILITY
       HX  = HEAT INDEX
$$



USA.gov is the U.S. government's official web portal to all federal, state and local government web resources and services.